Weather History for KEYW - March, 2014

Change the Weather History Date:

Sunday, March 30, 2014

  Actual Average Record
Temperature  
Mean Temperature 73 °F 74 °F  
Max Temperature 77 °F 79 °F 86 °F (1991)
Min Temperature 69 °F 70 °F 58 °F (1948)
Degree Days  
Heating Degree Days 0 0  
Month to date heating degree days 0 0  
Since 1 July heating degree days 22 66  
Cooling Degree Days 8 10  
Month to date cooling degree days 270 253  
Year to date cooling degree days 696 601  
Growing Degree Days 22 (Base 50)    
Moisture  
Dew Point 63 °F    
Average Humidity 71    
Maximum Humidity 93    
Minimum Humidity 49    
Precipitation  
Precipitation 0.06 in 0.07 in 4.52 in (1905)
Month to date precipitation 3.78 1.98  
Year to date precipitation 11.38 5.51  
Snow  
Snow 0.00 in - - ()
Month to date snowfall 0.0  
Since 1 July snowfall 0.0  
Snow Depth 0.00 in    
Sea Level Pressure  
Sea Level Pressure 30.03 in    
Wind  
Wind Speed 12 mph (NNW)    
Max Wind Speed 21 mph    
Max Gust Speed 27 mph    
Visibility 10 miles    
Events Rain    
T = Trace of Precipitation, MM = Missing Value Source: NWS Daily Summary

Daily Weather History Graph

Daily Weather History Graph

Search for Another Location

Airport or City:

Trip Planner

Search our weather history database for the weather conditions in past years. The results will help you decide how hot, cold, wet, or windy it might be!

Date:

Astronomy

Mar. 30, 2014 Rise Set
Actual Time 7:20 AM EDT 7:42 PM EDT
Civil Twilight 6:57 AM EDT 8:05 PM EDT
Nautical Twilight 6:31 AM EDT 8:31 PM EDT
Astronomical Twilight 6:04 AM EDT 8:58 PM EDT
Moon 7:05 AM EDT 7:50 PM EDT
Length of Visible Light 13h 07m
Length of Day
12h 21m
Waning Crescent, 0% of the Moon is Illuminated
Mar 30
Waning Crescent
Mar 30
New
Apr 7
First Quarter
Apr 15
Full
Apr 22
Last Quarter

Hourly Weather History & Observations

Time (EDT) Temp. Dew Point Humidity Pressure Visibility Wind Dir Wind Speed Gust Speed Precip Events Conditions
12:53 AM 75.0 °F 66.0 °F 73% 29.99 in 10.0 mi WSW 15.0 mph - 0.00 in Rain Light Rain
1:53 AM 73.0 °F 68.0 °F 84% 29.98 in 10.0 mi West 9.2 mph - 0.06 in Rain Light Rain
2:53 AM 73.9 °F 70.0 °F 87% 29.97 in 10.0 mi WNW 6.9 mph - 0.00 in   Clear
3:53 AM 73.9 °F 71.1 °F 91% 29.96 in 10.0 mi South 3.5 mph - N/A   Overcast
4:53 AM 75.0 °F 71.1 °F 87% 29.95 in 10.0 mi WSW 8.1 mph - N/A   Scattered Clouds
5:46 AM 75.9 °F 72.0 °F 87% 29.95 in 10.0 mi WNW 12.7 mph 21.9 mph N/A   Overcast
5:53 AM 77.0 °F 72.0 °F 84% 29.96 in 10.0 mi WNW 12.7 mph - N/A   Overcast
6:53 AM 73.9 °F 70.0 °F 87% 29.97 in 10.0 mi NNW 15.0 mph 21.9 mph N/A   Mostly Cloudy
7:15 AM 73.0 °F 70.0 °F 90% 29.98 in 10.0 mi NNW 15.0 mph 24.2 mph N/A   Overcast
7:48 AM 73.4 °F 68.0 °F 83% 30.00 in 10.0 mi North 12.7 mph 25.3 mph N/A   Overcast
7:53 AM 73.0 °F 66.9 °F 81% 30.01 in 10.0 mi NNW 15.0 mph 24.2 mph N/A   Overcast
8:26 AM 73.0 °F 64.0 °F 73% 30.02 in 10.0 mi North 12.7 mph 23.0 mph N/A   Overcast
8:53 AM 73.0 °F 64.0 °F 73% 30.03 in 10.0 mi North 12.7 mph 25.3 mph N/A   Mostly Cloudy
9:53 AM 73.0 °F 64.9 °F 76% 30.05 in 10.0 mi North 12.7 mph 25.3 mph N/A   Mostly Cloudy
10:21 AM 73.9 °F 66.0 °F 76% 30.06 in 10.0 mi North 16.1 mph 23.0 mph N/A   Mostly Cloudy
10:31 AM 73.9 °F 64.9 °F 73% 30.06 in 10.0 mi North 18.4 mph 25.3 mph N/A   Scattered Clouds
10:53 AM 73.0 °F 64.0 °F 73% 30.07 in 10.0 mi North 18.4 mph 25.3 mph N/A   Scattered Clouds
11:53 AM 73.9 °F 64.0 °F 71% 30.08 in 10.0 mi North 16.1 mph 24.2 mph N/A   Mostly Cloudy
12:21 PM 75.0 °F 64.0 °F 69% 30.08 in 10.0 mi North 19.6 mph 25.3 mph N/A   Scattered Clouds
12:53 PM 73.9 °F 63.0 °F 68% 30.08 in 10.0 mi North 15.0 mph 24.2 mph N/A   Scattered Clouds
1:29 PM 73.9 °F 63.0 °F 68% 30.08 in 10.0 mi North 16.1 mph 26.5 mph N/A   Mostly Cloudy
1:53 PM 73.9 °F 61.0 °F 64% 30.07 in 10.0 mi North 13.8 mph 24.2 mph N/A   Scattered Clouds
2:53 PM 73.9 °F 61.0 °F 64% 30.06 in 10.0 mi NNW 16.1 mph 24.2 mph N/A   Clear
3:53 PM 75.0 °F 57.0 °F 53% 30.04 in 10.0 mi North 15.0 mph 24.2 mph N/A   Clear
4:53 PM 73.9 °F 54.0 °F 50% 30.03 in 10.0 mi NNW 13.8 mph - N/A   Clear
5:53 PM 73.0 °F 54.0 °F 51% 30.02 in 10.0 mi North 12.7 mph 21.9 mph N/A   Clear
6:53 PM 72.0 °F 55.9 °F 57% 30.03 in 10.0 mi NNW 11.5 mph - N/A   Clear
7:53 PM 70.0 °F 55.9 °F 61% 30.04 in 10.0 mi North 10.4 mph - N/A   Clear
8:53 PM 69.1 °F 55.9 °F 63% 30.06 in 10.0 mi North 11.5 mph - N/A   Clear
9:53 PM 69.1 °F 55.9 °F 63% 30.06 in 10.0 mi North 8.1 mph - N/A   Clear
10:53 PM 69.1 °F 55.9 °F 63% 30.08 in 10.0 mi North 5.8 mph - N/A   Clear
11:53 PM 69.1 °F 55.9 °F 63% 30.10 in 10.0 mi NNE 6.9 mph - N/A   Clear